Regional Weather Roundup
Issued by NWS

Home | Current Version | Previous Version | Graphics & Text | Print | Product List | Glossary On
Versions: 1 2 3 4 5 6 7 8 9 10 11 12 13 14 15 16 17 18 19 20 21 22 23 24 25 26 27 28 29 30 31 32 33 34 35 36 37 38 39 40 41 42 43 44 45 46 47 48 49 50
000
ASUS45 KCYS 280310
RWRWY

WYOMING REGIONAL WEATHER ROUNDUP
NATIONAL WEATHER SERVICE CHEYENNE WY
800 PM MST SAT DEC 27 2014

NOTE:  "FAIR" INDICATES FEW OR NO CLOUDS BELOW 12,000 FEET
WITH NO SIGNIFICANT WEATHER AND/OR OBSTRUCTIONS TO VISIBILITY.

WYZ001-280400-
YELLOWSTONE NATIONAL PARK

CITY           SKY/WX    TMP DP  RH WIND       PRES   REMARKS
LK YELLOWSTONE   N/A     10   5  80 CALM      30.01F
W YELLOWSTONE  NOT AVBL

$$
WYZ002>013-054>058-071-098>099-280400-
NORTHERN WYOMING

CITY           SKY/WX    TMP DP  RH WIND       PRES   REMARKS
JACKSON        LGT SNOW  16  14  93 S12       30.08F WCI   3
CODY           MOCLDY    27   9  46 W15G24    29.95F WCI  15
GREYBULL       FAIR       2  -3  80 CALM      30.07S
WORLAND        FAIR      -6  -9  86 CALM      30.06R
SHERIDAN       CLOUDY    15   5  64 CALM      29.96F
BUFFALO        FAIR      15   1  53 S6        29.95F WCI   6
GILLETTE       FAIR      18   4  54 SW10      29.97F WCI   6
HULETT           N/A    N/A N/A N/A MISG        N/A
NEWCASTLE      FAIR      12   9  85 CALM      30.03F

$$
WYZ014>020-022>026-101>103-280400-
CENTRAL WYOMING

CITY           SKY/WX    TMP DP  RH WIND       PRES   REMARKS
BIG PINEY      FAIR      -7 -10  87 E6        30.10F WCI -20
PINEDALE       FAIR      -4  -6  92 CALM      30.11S
DUBOIS         NOT AVBL
LANDER         FAIR       7   1  76 CALM      30.00F
RIVERTON       FAIR       6   2  83 SW9       30.01F WCI  -8
CASPER         FAIR      17   7  64 SW18      30.02S WCI   1
DOUGLAS        FAIR      20   7  57 NW10      30.02F WCI   9

$$
WYZ021-027>030-104>119-280400-
SOUTHERN WYOMING

CITY           SKY/WX    TMP DP  RH WIND       PRES   REMARKS
EVANSTON       FAIR      12   6  77 SW16      30.13F WCI  -5
FORT BRIDGER   FAIR      16   7  68 W15       30.16S WCI   1
ROCK SPRINGS   CLOUDY    15   7  70 SW9       30.14S WCI   3
DIXON          CLOUDY    10   2  72 W3        30.20F
RAWLINS        FAIR      13   5  70 W18G33    30.03F WCI  -4
SARATOGA       MOCLDY     9   1  72 SE5       30.09S WCI   0
LARAMIE        FAIR       8  -2  63 S14       29.99R WCI  -8
CHEYENNE       FAIR      17   1  49 W17       30.01F WCI   1
TORRINGTON     FAIR      19   8  62 W8        30.07S WCI   9
PINE BLUFFS    FAIR       1  -4  78 MISG      30.08S

$$



USA.gov is the U.S. government's official web portal to all federal, state and local government web resources and services.